Total_Precipitation_Accumulation
1.10 1.12 1.24 1.40 1.50 1.55 1.68 1.66 1.58 1.54 1.57 1.51 1.47 1.48 1.46 1.39 1.48 1.67 1.80 1.99 2.11 2.17 2.14 2.17 2.16 2.24 2.27 2.13 2.20 2.32 2.49 2.65 2.35 1.92 1.99 2.13 2.09 1.88 1.71 1.56 1.45 1.40 1.37
1.06 1.16 1.22 1.32 1.40 1.43 1.47 1.55 1.62 1.58 1.63 1.60 1.54 1.52 1.40 1.38 1.48 1.61 1.76 1.93 2.07 2.18 2.28 2.35 2.15 2.20 2.32 2.24 2.23 2.25 2.34 2.58 2.50 2.37 2.34 2.40 2.32 2.07 1.86 1.61 1.31 1.18 1.25
1.16 1.17 1.13 1.20 1.19 1.24 1.31 1.38 1.51 1.56 1.60 1.64 1.65 1.58 1.52 1.56 1.65 1.72 1.78 1.92 2.05 2.13 2.22 2.21 2.15 2.26 2.17 2.20 2.26 2.23 2.21 2.26 2.38 2.36 2.27 2.34 2.27 2.05 1.87 1.61 1.38 1.35 1.24
1.01 1.02 1.06 1.09 1.13 1.23 1.33 1.36 1.40 1.39 1.46 1.49 1.49 1.56 1.60 1.65 1.70 1.70 1.70 1.74 1.82 1.90 1.89 1.80 1.73 1.79 1.86 2.00 2.00 2.00 2.06 2.13 2.23 2.19 2.18 2.25 2.26 2.28 2.12 1.82 1.65 1.50 1.36
1.06 1.04 1.09 1.15 1.15 1.19 1.22 1.22 1.24 1.32 1.34 1.50 1.53 1.62 1.68 1.65 1.56 1.61 1.62 1.54 1.72 1.69 1.56 1.50 1.51 1.60 1.63 1.70 1.63 1.70 1.85 1.93 2.02 2.12 2.20 2.36 2.39 2.50 2.34 2.05 1.91 1.77 1.53
1.05 1.15 1.24 1.23 1.13 1.16 1.17 1.15 1.19 1.31 1.41 1.50 1.56 1.67 1.69 1.54 1.58 1.62 1.64 1.62 1.68 1.64 1.56 1.50 1.39 1.40 1.39 1.42 1.46 1.51 1.63 1.76 1.93 2.10 2.18 2.27 2.33 2.29 2.24 2.11 2.00 1.83 1.57
1.11 1.13 1.27 1.34 1.24 1.29 1.32 1.31 1.31 1.36 1.46 1.55 1.68 1.74 1.70 1.72 1.62 1.50 1.53 1.52 1.58 1.63 1.64 1.63 1.38 1.22 1.32 1.30 1.43 1.40 1.36 1.42 1.52 1.68 1.80 1.93 2.11 2.21 2.29 2.21 2.19 2.07 1.81
1.14 1.20 1.40 1.55 1.44 1.45 1.45 1.47 1.50 1.54 1.59 1.71 1.76 1.68 1.65 1.67 1.59 1.35 1.29 1.21 1.32 1.44 1.53 1.58 1.57 1.47 1.44 1.46 1.51 1.50 1.43 1.41 1.49 1.50 1.54 1.73 2.05 2.31 2.36 2.32 2.33 2.23 1.96
1.24 1.35 1.56 1.75 1.79 1.74 1.69 1.77 1.81 1.81 1.84 1.90 1.95 1.90 1.79 1.76 1.57 1.26 1.15 1.12 1.26 1.34 1.39 1.39 1.38 1.30 1.31 1.24 1.27 1.34 1.35 1.32 1.31 1.32 1.34 1.46 1.71 2.06 2.25 2.29 2.37 2.27 2.05
1.41 1.41 1.52 1.72 1.79 1.77 1.76 1.90 2.04 2.06 2.04 2.07 1.97 1.83 1.74 1.72 1.63 1.33 1.16 1.13 1.28 1.36 1.45 1.44 1.39 1.32 1.28 1.14 1.10 1.18 1.18 1.18 1.24 1.25 1.22 1.21 1.31 1.60 1.92 1.93 1.99 2.10 1.88
1.37 1.39 1.49 1.71 1.99 1.94 1.95 2.01 2.13 2.18 2.20 2.21 2.11 2.00 1.87 1.82 1.78 1.46 1.30 1.24 1.33 1.39 1.34 1.35 1.32 1.29 1.09 0.99 0.98 1.04 1.08 1.08 1.19 1.24 1.25 1.27 1.32 1.41 1.55 1.63 1.70 1.77 1.75
1.43 1.46 1.55 1.78 1.88 1.94 2.05 2.10 2.22 2.31 2.31 2.27 2.27 2.13 2.05 1.97 1.72 1.45 1.26 1.25 1.34 1.44 1.44 1.40 1.36 1.22 0.98 0.87 0.78 0.75 0.79 0.79 0.86 0.99 1.06 1.09 1.14 1.19 1.30 1.46 1.64 1.70 1.69
1.40 1.40 1.49 1.63 1.70 1.83 1.92 1.86 1.91 2.01 2.02 2.05 2.09 2.05 2.05 2.14 2.00 1.57 1.27 1.20 1.27 1.38 1.52 1.59 1.39 1.21 1.07 0.93 0.86 0.78 0.70 0.67 0.76 0.86 0.92 0.93 0.98 1.06 1.23 1.45 1.64 1.84 1.78
1.36 1.30 1.40 1.59 1.70 1.77 1.83 1.80 1.86 1.91 1.95 2.01 2.03 1.98 2.00 2.14 2.13 1.81 1.48 1.29 1.20 1.18 1.22 1.25 1.17 1.11 1.00 0.89 0.81 0.72 0.64 0.67 0.75 0.78 0.85 0.93 1.03 1.20 1.29 1.31 1.40 1.62 1.79
1.41 1.35 1.41 1.52 1.62 1.76 1.81 1.84 1.84 1.84 1.80 1.81 1.83 1.79 1.79 1.91 1.91 1.68 1.48 1.33 1.21 1.17 1.18 1.23 1.21 1.20 1.10 1.00 0.93 0.88 0.86 0.88 0.84 0.85 0.92 1.00 1.06 1.14 1.23 1.30 1.37 1.42 1.47
1.50 1.45 1.40 1.38 1.44 1.52 1.59 1.55 1.47 1.42 1.40 1.36 1.37 1.29 1.28 1.44 1.43 1.19 1.06 1.08 1.07 1.04 1.05 1.13 1.21 1.25 1.20 1.13 1.08 1.02 1.03 1.00 0.96 0.97 1.01 1.06 1.10 1.13 1.20 1.34 1.46 1.47 1.37
1.59 1.45 1.34 1.27 1.26 1.28 1.37 1.45 1.48 1.36 1.27 1.18 1.13 1.01 0.93 1.14 1.22 1.08 0.94 0.89 0.86 0.86 0.91 1.00 1.05 1.13 1.17 1.08 0.99 0.93 0.93 0.95 1.00 1.04 1.04 1.07 1.13 1.18 1.24 1.33 1.45 1.52 1.44
1.53 1.43 1.27 1.19 1.17 1.14 1.19 1.27 1.32 1.37 1.33 1.16 1.00 0.89 0.80 0.91 1.03 0.98 0.88 0.77 0.75 0.76 0.81 0.90 0.97 1.03 1.09 1.06 0.98 0.97 1.00 1.05 1.04 1.05 1.06 1.08 1.13 1.18 1.24 1.29 1.35 1.42 1.41
1.46 1.36 1.23 1.20 1.19 1.09 1.00 1.04 1.09 1.15 1.24 1.19 1.01 0.91 0.83 0.88 0.95 0.92 0.80 0.70 0.73 0.73 0.74 0.81 0.88 0.95 0.98 0.97 0.96 0.99 1.01 1.04 0.99 1.00 1.06 1.11 1.08 1.13 1.14 1.19 1.28 1.38 1.40
1.23 1.16 1.12 1.14 1.15 1.09 1.02 1.02 1.07 1.14 1.20 1.17 1.05 0.92 0.80 0.82 0.89 0.89 0.77 0.72 0.71 0.69 0.68 0.74 0.81 0.86 0.90 0.93 1.00 1.03 1.01 1.05 1.08 1.03 1.06 1.13 1.07 1.07 1.08 1.09 1.20 1.26 1.26
1.07 0.98 0.91 0.91 0.96 0.96 0.97 1.03 1.13 1.18 1.18 1.09 0.93 0.78 0.69 0.64 0.75 0.76 0.78 0.80 0.77 0.76 0.76 0.74 0.77 0.82 0.84 0.91 0.99 1.04 1.05 1.07 1.10 1.04 1.03 1.11 1.10 1.11 1.15 1.13 1.15 1.26 1.26
1.08 0.94 0.82 0.79 0.81 0.82 0.90 1.01 1.09 1.08 1.01 0.94 0.84 0.74 0.70 0.65 0.70 0.73 0.78 0.77 0.74 0.73 0.68 0.69 0.72 0.78 0.82 0.86 0.92 0.99 1.01 1.01 1.05 1.08 1.07 1.11 1.13 1.11 1.15 1.14 1.12 1.23 1.32
0.95 0.76 0.63 0.59 0.61 0.65 0.76 0.91 0.96 0.89 0.80 0.77 0.76 0.73 0.73 0.73 0.72 0.74 0.76 0.74 0.71 0.68 0.64 0.68 0.72 0.76 0.82 0.83 0.82 0.87 0.92 0.93 0.92 0.98 1.08 1.09 1.12 1.14 1.15 1.18 1.18 1.22 1.30
0.84 0.68 0.54 0.48 0.50 0.57 0.70 0.86 0.86 0.76 0.71 0.72 0.72 0.73 0.72 0.72 0.71 0.72 0.74 0.75 0.74 0.71 0.68 0.69 0.69 0.67 0.70 0.76 0.75 0.71 0.72 0.70 0.71 0.79 0.91 1.01 1.06 1.15 1.15 1.16 1.20 1.18 1.27
0.73 0.62 0.51 0.45 0.47 0.60 0.77 0.86 0.77 0.69 0.67 0.68 0.65 0.68 0.72 0.74 0.74 0.74 0.74 0.77 0.76 0.77 0.75 0.71 0.69 0.66 0.61 0.61 0.63 0.61 0.59 0.51 0.51 0.61 0.73 0.86 0.92 1.02 1.08 1.09 1.17 1.21 1.23
0.70 0.65 0.58 0.54 0.58 0.69 0.80 0.82 0.75 0.71 0.73 0.69 0.67 0.69 0.73 0.76 0.75 0.73 0.74 0.75 0.74 0.72 0.66 0.63 0.61 0.61 0.59 0.56 0.51 0.47 0.42 0.40 0.42 0.50 0.60 0.72 0.83 0.91 0.98 1.03 1.08 1.16 1.17